Coventry/Coundon, United Kingdom

7:51 AM GMT on February 23, 2017 (GMT +0000)
Coventry

Weather History for EGBE - March, 2013

Change the Weather History Date:

Saturday, March 2, 2013

  Actual Average Record
Temperature  
Mean Temperature 42 °F -  
Max Temperature 46 °F 48 °F 57 °F (2009)
Min Temperature 37 °F 37 °F 21 °F (2004)
Degree Days  
Heating Degree Days 24    
Moisture  
Dew Point 31 °F    
Average Humidity 67    
Maximum Humidity 75    
Minimum Humidity 57    
Precipitation  
Precipitation 0.00 in - - ()
Sea Level Pressure  
Sea Level Pressure 30.33 in    
Wind  
Wind Speed 4 mph ()    
Max Wind Speed 9 mph    
Max Gust Speed -    
Visibility 5.8 miles    
Events      
Averages and records for this station are not official NWS values.
T = Trace of Precipitation, MM = Missing Value Source: Averaged Metar Reports

Daily Weather History Graph

Daily Weather History Graph

Search for Another Location

Airport or City:

Trip Planner

Search our weather history database for the weather conditions in past years. The results will help you decide how hot, cold, wet, or windy it might be!

Date:

Astronomy

Mar. 02, 2013 Rise Set
Actual Time 6:49 AM GMT 5:47 PM GMT
Civil Twilight 6:15 AM GMT 6:21 PM GMT
Nautical Twilight 5:36 AM GMT 7:00 PM GMT
Astronomical Twilight 4:56 AM GMT 7:40 PM GMT
Moon 11:58 PM GMT (3/2) 8:24 AM GMT (3/2)
Length of Visible Light 12h 05m
Length of Day
10h 57m
Waning Gibbous, 76% of the Moon is Illuminated
Mar 2
Waning Gibbous
Mar 4
Last Quarter
Mar 11
New
Mar 19
First Quarter
Mar 27
Full

Hourly Weather History & Observations

Time (GMT) Temp. Windchill Dew Point Humidity Pressure Visibility Wind Dir Wind Speed Gust Speed Precip Events Conditions
12:20 AM 39.2 °F 33.0 °F 32.0 °F 75% 30.42 in 6.2 mi ENE 9.2 mph - N/A   Mostly Cloudy
12:50 AM 39.2 °F 33.6 °F 30.2 °F 70% 30.42 in 6.2 mi NE 8.1 mph - N/A   Mostly Cloudy
1:20 AM 39.2 °F 35.0 °F 32.0 °F 75% 30.42 in 6.2 mi NE 5.8 mph - N/A   Mostly Cloudy
1:50 AM 39.2 °F 33.6 °F 32.0 °F 75% 30.42 in 6.2 mi NE 8.1 mph - N/A   Mostly Cloudy
8:50 AM 37.4 °F 33.8 °F 30.2 °F 75% 30.36 in 5.6 mi NE 4.6 mph - N/A   Mostly Cloudy
9:20 AM 37.4 °F 32.8 °F 30.2 °F 75% 30.36 in 5.6 mi Variable 5.8 mph - N/A   Mostly Cloudy
9:50 AM 37.4 °F - 30.2 °F 75% 30.36 in 5.6 mi Variable 2.3 mph - N/A   Mostly Cloudy
10:20 AM 39.2 °F 35.9 °F 30.2 °F 70% 30.36 in 5.6 mi NW 4.6 mph - N/A   Mostly Cloudy
10:50 AM 39.2 °F 35.9 °F 30.2 °F 70% 30.36 in 5.6 mi NNW 4.6 mph - N/A   Mostly Cloudy
11:20 AM 39.2 °F - 30.2 °F 70% 30.36 in 5.6 mi Variable 2.3 mph - N/A   Partly Cloudy
11:50 AM 41.0 °F 39.0 °F 30.2 °F 65% 30.36 in 5.6 mi Variable 3.5 mph - N/A   Partly Cloudy
12:20 PM 42.8 °F 40.1 °F 30.2 °F 61% 30.36 in 5.6 mi Variable 4.6 mph - N/A   Partly Cloudy
12:50 PM 42.8 °F - 32.0 °F 66% 30.33 in 5.6 mi Variable 2.3 mph - N/A   Partly Cloudy
1:20 PM 44.6 °F 43.1 °F 32.0 °F 61% 30.33 in - Variable 3.5 mph - N/A   Clear
1:50 PM 44.6 °F 42.2 °F 32.0 °F 61% 30.33 in - ENE 4.6 mph - N/A   Clear
2:20 PM 44.6 °F 43.1 °F 32.0 °F 61% 30.30 in - Variable 3.5 mph - N/A   Clear
2:50 PM 46.4 °F 45.2 °F 32.0 °F 57% 30.30 in - East 3.5 mph - N/A   Clear
3:20 PM 46.4 °F - 32.0 °F 57% 30.30 in - Variable 2.3 mph - N/A   Clear
3:50 PM 46.4 °F - 32.0 °F 57% 30.27 in - Variable 2.3 mph - N/A   Clear
4:20 PM 46.4 °F - 32.0 °F 57% 30.27 in - Variable 1.2 mph - N/A   Clear
4:50 PM 46.4 °F - 33.8 °F 62% 30.27 in - Variable 1.2 mph - N/A   Clear
5:20 PM 44.6 °F 43.1 °F 32.0 °F 61% 30.27 in - South 3.5 mph - N/A   Clear
5:50 PM 41.0 °F 39.0 °F 32.0 °F 70% 30.27 in - South 3.5 mph - N/A   Clear
6:20 PM 39.2 °F 35.9 °F 32.0 °F 75% 30.27 in - South 4.6 mph - N/A   Clear
6:50 PM 39.2 °F 37.0 °F 32.0 °F 75% 30.27 in - SE 3.5 mph - N/A   Clear